Regional Weather Roundup
Issued by NWS

Home | Current Version | Previous Version | Text Only | Print | Product List | Glossary Off
Versions: 1 2 3 4 5 6 7 8 9 10 11 12 13 14 15 16 17 18 19 20 21 22 23 24 25 26 27 28 29 30 31 32 33 34 35 36 37 38 39 40 41 42 43 44 45 46 47 48 49 50

000
ASUS43 KBIS 192002
RWRND

NORTH DAKOTA REGIONAL WEATHER ROUNDUP
NATIONAL WEATHER SERVICE BISMARCK ND
300 PM CDT TUE SEP 19 2017

NOTE: "FAIR" INDICATES FEW OR NO CLOUDS BELOW 12,000 FEET WITH NO
SIGNIFICANT WEATHER AND/OR OBSTRUCTIONS TO VISIBILITY.


NDZ001>003-009>011-017-192100-
NORTHWEST NORTH DAKOTA

CITY           SKY/WX    TMP DP  RH WIND       PRES   REMARKS
WILLISTON      CLOUDY    63  51  65 W16G23    29.48R
MINOT          CLOUDY    71  58  63 S14G21    29.43S
MINOT AFB      LGT RAIN  67  59  75 S12       29.42S
$$

NDZ018>021-031>035-040>046-192100-
SOUTHWEST NORTH DAKOTA

CITY           SKY/WX    TMP DP  RH WIND       PRES   REMARKS
BISMARCK       CLOUDY    75  50  41 W12       29.46F
DICKINSON      CLOUDY    61  50  67 W12       29.50F
GARRISON         N/A     64  55  72 W12       29.46S
HETTINGER ARPT CLOUDY    60  48  64 NW14      29.54R
$$

NDZ004>008-012>016-024-026-027-054-192100-
NORTHEAST NORTH DAKOTA

CITY           SKY/WX    TMP DP  RH WIND       PRES   REMARKS
GRAND FORKS    CLOUDY    76  65  68 SE16      29.55F
GRND FRKS AFB  CLOUDY    75  64  68 S14       29.55F
DEVILS LAKE    LGT RAIN  65  62  90 SE15      29.52F
$$

NDZ022-023-025-028>030-036>039-047>053-192100-
SOUTHEAST NORTH DAKOTA

CITY           SKY/WX    TMP DP  RH WIND       PRES   REMARKS
FARGO          CLOUDY    76  63  64 SE26G38   29.57F
JAMESTOWN      LGT RAIN  70  64  81 SE18G29   29.50S
$$





USA.gov is the U.S. government's official web portal to all federal, state and local government web resources and services.